Regional Weather Roundup
Issued by NWS

Home | Current Version | Previous Version | Text Only | Print | Product List | Glossary On
Versions: 1 2 3 4 5 6 7 8 9 10 11 12 13 14 15 16 17 18 19 20 21 22 23 24 25 26 27 28 29 30 31 32 33 34 35 36 37 38 39 40 41 42 43 44 45 46 47 48 49 50
000
ASCA44 KEWX 050820
RWRMX

LATIN AMERICA AND CARIBBEAN REGIONAL WEATHER ROUNDUP
NATIONAL WEATHER SERVICE AUSTIN/SAN ANTONIO TX
200 AM CST MON DEC 05 2016

NOTE: "FAIR" INDICATED FEW OR NO CLOUDS BELOW 12,000 FEET WITH NO
SIGNIFICANT WEATHER AND/OR OBSTRUCTIONS TO VISIBILITY.

BAJA CALIFORNIA

CITY           SKY/WX    TMP DP  RH WIND       PRES   REMARKS
MEXICALI       PTCLDY    52  21  30 SE6       29.93F
S.J. DEL CABO    N/A    N/A N/A N/A MISG        N/A
TIJUANA        PTCLDY    52  36  54 CALM      30.02S

NORTHWESTERN MEXICO

CITY           SKY/WX    TMP DP  RH WIND       PRES   REMARKS
HERMOSILLO     CLEAR     52  43  71 CALM      29.98S

NORTHEASTERN MEXICO

CITY           SKY/WX    TMP DP  RH WIND       PRES   REMARKS
MONCLOVA         N/A    N/A N/A N/A MISG        N/A
MONTERREY      CLOUDY    52  48  87 NW16      29.93F
REYNOSA          N/A    N/A N/A N/A MISG        N/A
CD. VICTORIA     N/A    N/A N/A N/A MISG        N/A

WESTERN MEXICO

CITY           SKY/WX    TMP DP  RH WIND       PRES   REMARKS
AGUASCALIENTES   N/A    N/A N/A N/A MISG        N/A
COLIMA           N/A    N/A N/A N/A MISG        N/A
GUADALAJARA    PTCLDY    59  43  55 S3        30.06S
MAZATLAN       CLEAR     52  50  93 NE5       29.99S
P. VALLARTA    MOCLDY    63  61  94 N3        29.95S
URUAPAN          N/A    N/A N/A N/A MISG        N/A
ZACATECAS      CLEAR     46  34  61 SW35      30.06S WCI  37

CENTRAL MEXICO

CITY           SKY/WX    TMP DP  RH WIND       PRES   REMARKS
CUERNAVACA       N/A    N/A N/A N/A MISG        N/A
MEXICO CITY    PTCLDY    59  39  47 S10       30.19F
MORELIA        MOCLDY    57  52  82 S8        30.10F
POZA RICA        N/A    N/A N/A N/A MISG        N/A
QUERETARO      PTCLDY    52  46  82 CALM      30.15F
S. LUIS POTOSI MOCLDY    57  43  58 S5        30.02F
TOLUCA         PTCLDY    41  37  87 NW3       30.27F

SOUTHERN MEXICO

CITY           SKY/WX    TMP DP  RH WIND       PRES   REMARKS
ACAPULCO       LGT RAIN  75  73  94 N8        29.85S
B. DE HUATULCO   N/A    N/A N/A N/A MISG        N/A
P. ESCONDIDO     N/A    N/A N/A N/A MISG        N/A
VERACRUZ         N/A    N/A N/A N/A MISG        N/A

YUCATAN PENINSULA

CITY           SKY/WX    TMP DP  RH WIND       PRES   REMARKS
CAMPECHE         N/A    N/A N/A N/A MISG        N/A
CANCUN         PTCLDY    81  77  89 SE16      29.85S
CHETUMAL         N/A    N/A N/A N/A MISG        N/A
CD. DEL CARMEN   N/A    N/A N/A N/A MISG        N/A
COZUMEL        PTCLDY    81  75  83 SE9       29.82F
MERIDA         CLEAR     75  73  94 E6        29.82F
MINATITLAN       N/A    N/A N/A N/A MISG        N/A
TAPACHULA      PTCLDY    73  72  94 CALM      29.85F

CENTRAL AMERICA

CITY           SKY/WX    TMP DP  RH WIND       PRES   REMARKS

CARIBBEAN

CITY           SKY/WX    TMP DP  RH WIND       PRES   REMARKS
CURACAO        PTCLDY    82  75  78 E14       29.89S
KINGSTON       PTCLDY    81  72  74 N8        29.89F
NASSAU         PTCLDY    73  68  83 E3        30.03F
SAN JUAN       PTCLDY    79  73  83 CALM      29.96S
ST. CROIX      CLEAR     73  72  94 NE6       29.96S
ST. THOMAS     CLEAR     77  75  94 E3        29.95S

$$




USA.gov is the U.S. government's official web portal to all federal, state and local government web resources and services.